Location: Overspoor
(51.4747°N, 5.6641°E)
Time: 15:05:57
(UTC+02:00)

RS-15 - Pass Details

Date: 26 June 2022
Orbit: 1881 x 2163 km, 64.8° (Epoch: 13 August)

Event Time Altitude Azimuth Distance (km) Brightness Sun altitude
Rises 23:40:20 0° 305° (NW) 5,676 11.7 -10.7°
Reaches altitude 10° 23:43:58 10° 310° (NW) 4,684 11.2 -10.9°
Maximum altitude 23:56:09 56° 28° (NNE) 2,469 8.8 -11.8°
Drops below altitude 10° 00:08:05 10° 106° (ESE) 4,607 9.6 -12.5°
Sets 00:11:36 0° 111° (ESE) 5,578 10.0 -12.7°
